Time,TemperatureF,DewpointF,PressureIn,WindDirection,WindDirectionDegrees,WindSpeedMPH,WindSpeedGustMPH,Humidity,HourlyPrecipIn,Conditions,Clouds,dailyrainin,SolarRadiationWatts/m^2,SoftwareType,DateUTC
2013-07-12 00:01:00,73.0,72.0,-100.00,ENE,75,0.0,0.0,97,0.00,,,0.09,0.000000,,2013-07-12 04:01:00,
2013-07-12 00:32:00,73.0,72.0,-100.00,NNE,31,0.0,3.0,97,0.01,,,0.10,0.000000,,2013-07-12 04:32:00,
2013-07-12 00:43:00,73.0,72.0,-100.00,NNE,31,0.0,3.0,97,0.01,,,0.10,0.000000,,2013-07-12 04:43:00,
2013-07-12 00:53:00,73.0,72.0,-100.00,NNE,31,0.0,3.0,97,0.01,,,0.10,0.000000,,2013-07-12 04:53:00,
2013-07-12 01:02:00,73.0,72.0,-100.00,NNE,31,0.0,3.0,97,0.01,,,0.10,0.000000,,2013-07-12 05:02:00,
2013-07-12 01:32:00,73.0,71.0,-100.00,NNE,27,3.0,5.0,94,0.00,,,0.08,0.000000,,2013-07-12 05:32:00,
2013-07-12 01:43:00,73.0,71.0,-100.00,NNE,27,3.0,5.0,94,0.00,,,0.08,0.000000,,2013-07-12 05:43:00,
2013-07-12 01:53:00,73.0,71.0,-100.00,NNE,27,3.0,5.0,94,0.00,,,0.08,0.000000,,2013-07-12 05:53:00,
2013-07-12 02:01:00,73.0,71.0,-100.00,NNE,27,3.0,5.0,94,0.00,,,0.08,0.000000,,2013-07-12 06:01:00,
2013-07-12 02:33:00,71.0,69.0,-100.00,East,86,0.0,5.0,94,0.00,,,0.07,0.000000,,2013-07-12 06:33:00,
2013-07-12 02:42:00,71.0,69.0,-100.00,East,86,0.0,5.0,94,0.00,,,0.07,0.000000,,2013-07-12 06:42:00,
2013-07-12 02:52:00,71.0,69.0,-100.00,East,86,0.0,5.0,94,0.00,,,0.07,0.000000,,2013-07-12 06:52:00,
2013-07-12 03:02:00,71.0,69.0,-100.00,East,86,0.0,5.0,94,0.00,,,0.07,0.000000,,2013-07-12 07:02:00,
2013-07-12 03:33:00,69.0,68.0,-100.00,SSE,156,0.0,0.0,97,0.00,,,0.05,0.000000,,2013-07-12 07:33:00,
2013-07-12 03:43:00,69.0,68.0,-100.00,SSE,156,0.0,0.0,97,0.00,,,0.05,0.000000,,2013-07-12 07:43:00,
2013-07-12 03:52:00,69.0,68.0,-100.00,SSE,156,0.0,0.0,97,0.00,,,0.05,0.000000,,2013-07-12 07:52:00,
2013-07-12 04:01:00,69.0,68.0,-100.00,SSE,156,0.0,0.0,97,0.00,,,0.05,0.000000,,2013-07-12 08:01:00,
2013-07-12 04:32:00,68.0,67.0,-100.00,SSE,152,0.0,0.0,97,0.00,,,0.05,0.000000,,2013-07-12 08:32:00,
2013-07-12 04:42:00,68.0,67.0,-100.00,SSE,152,0.0,0.0,97,0.00,,,0.05,0.000000,,2013-07-12 08:42:00,
2013-07-12 04:53:00,68.0,67.0,-100.00,SSE,152,0.0,0.0,97,0.00,,,0.05,0.000000,,2013-07-12 08:53:00,
2013-07-12 05:02:00,68.0,67.0,-100.00,SSE,152,0.0,0.0,97,0.00,,,0.05,0.000000,,2013-07-12 09:02:00,
2013-07-12 05:43:00,67.0,66.0,-100.00,West,270,0.0,0.0,97,0.00,,,0.05,0.000000,,2013-07-12 09:43:00,
2013-07-12 05:52:00,67.0,66.0,-100.00,West,270,0.0,0.0,97,0.00,,,0.05,0.000000,,2013-07-12 09:52:00,
2013-07-12 06:01:00,67.0,66.0,-100.00,West,270,0.0,0.0,97,0.00,,,0.05,0.000000,,2013-07-12 10:01:00,
2013-07-12 06:33:00,67.0,66.0,-100.00,NNE,13,0.0,0.0,98,0.00,,,0.05,0.000000,,2013-07-12 10:33:00,
2013-07-12 06:42:00,67.0,66.0,-100.00,NNE,13,0.0,0.0,98,0.00,,,0.05,0.000000,,2013-07-12 10:42:00,
2013-07-12 06:52:00,67.0,66.0,-100.00,NNE,13,0.0,0.0,98,0.00,,,0.05,0.000000,,2013-07-12 10:52:00,
2013-07-12 07:02:00,67.0,66.0,-100.00,NNE,13,0.0,0.0,98,0.00,,,0.05,0.000000,,2013-07-12 11:02:00,
2013-07-12 07:32:00,67.0,66.0,-100.00,North,353,0.0,2.0,98,0.00,,,0.05,6.000000,,2013-07-12 11:32:00,
2013-07-12 07:43:00,67.0,66.0,-100.00,North,353,0.0,2.0,98,0.00,,,0.05,6.000000,,2013-07-12 11:43:00,
2013-07-12 07:53:00,67.0,66.0,-100.00,North,353,0.0,2.0,98,0.00,,,0.05,6.000000,,2013-07-12 11:53:00,
2013-07-12 08:02:00,67.0,66.0,-100.00,North,353,0.0,2.0,98,0.00,,,0.05,6.000000,,2013-07-12 12:02:00,
2013-07-12 08:32:00,70.0,69.0,-100.00,NNE,18,1.0,5.0,97,0.00,,,0.05,93.000000,,2013-07-12 12:32:00,
2013-07-12 08:43:00,70.0,69.0,-100.00,NNE,18,1.0,5.0,97,0.00,,,0.05,93.000000,,2013-07-12 12:43:00,
2013-07-12 08:53:00,70.0,69.0,-100.00,NNE,18,1.0,5.0,97,0.00,,,0.05,93.000000,,2013-07-12 12:53:00,
2013-07-12 09:01:00,70.0,69.0,-100.00,NNE,18,1.0,5.0,97,0.00,,,0.05,93.000000,,2013-07-12 13:01:00,
2013-07-12 09:32:00,74.0,68.0,-100.00,NE,34,4.0,8.0,81,0.00,,,0.05,248.000000,,2013-07-12 13:32:00,
2013-07-12 09:43:00,74.0,68.0,-100.00,NE,34,4.0,8.0,81,0.00,,,0.05,248.000000,,2013-07-12 13:43:00,
2013-07-12 09:53:00,74.0,68.0,-100.00,NE,34,4.0,8.0,81,0.00,,,0.05,248.000000,,2013-07-12 13:53:00,
2013-07-12 10:02:00,74.0,68.0,-100.00,NE,34,4.0,8.0,81,0.00,,,0.05,248.000000,,2013-07-12 14:02:00,
2013-07-12 10:32:00,77.0,68.0,-100.00,NE,34,7.0,13.0,73,0.00,,,0.05,369.000000,,2013-07-12 14:32:00,
2013-07-12 10:44:00,77.0,68.0,-100.00,NE,34,7.0,13.0,73,0.00,,,0.05,369.000000,,2013-07-12 14:44:00,
2013-07-12 10:53:00,77.0,68.0,-100.00,NE,34,7.0,13.0,73,0.00,,,0.05,369.000000,,2013-07-12 14:53:00,
2013-07-12 11:02:00,77.0,68.0,-100.00,NE,34,7.0,13.0,73,0.00,,,0.05,369.000000,,2013-07-12 15:02:00,
2013-07-12 11:43:00,78.0,67.0,-100.00,NNE,27,8.0,12.0,70,0.00,,,0.05,334.000000,,2013-07-12 15:43:00,
2013-07-12 11:53:00,78.0,67.0,-100.00,NNE,27,8.0,12.0,70,0.00,,,0.05,334.000000,,2013-07-12 15:53:00,
2013-07-12 12:01:00,78.0,67.0,-100.00,NNE,27,8.0,12.0,70,0.00,,,0.05,334.000000,,2013-07-12 16:01:00,
2013-07-12 12:32:00,80.0,67.0,-100.00,NE,34,7.0,12.0,64,0.00,,,0.05,506.000000,,2013-07-12 16:32:00,
2013-07-12 12:43:00,80.0,67.0,-100.00,NE,34,7.0,12.0,64,0.00,,,0.05,506.000000,,2013-07-12 16:43:00,
2013-07-12 12:58:00,80.0,67.0,-100.00,NE,34,7.0,12.0,64,0.00,,,0.05,506.000000,,2013-07-12 16:58:00,
2013-07-12 13:06:00,83.0,68.0,-100.00,NNE,20,7.0,14.0,60,0.00,,,0.05,796.000000,,2013-07-12 17:06:00,
2013-07-12 13:40:00,83.0,68.0,-100.00,NNE,20,7.0,14.0,60,0.00,,,0.05,796.000000,,2013-07-12 17:40:00,
2013-07-12 13:47:00,83.0,68.0,-100.00,NNE,20,7.0,14.0,60,0.00,,,0.05,796.000000,,2013-07-12 17:47:00,
2013-07-12 14:35:00,84.0,67.0,-100.00,North,2,7.0,14.0,56,0.00,,,0.05,896.000000,,2013-07-12 18:35:00,
2013-07-12 14:51:00,84.0,67.0,-100.00,North,2,7.0,14.0,56,0.00,,,0.05,896.000000,,2013-07-12 18:51:00,
2013-07-12 14:58:00,84.0,67.0,-100.00,North,2,7.0,14.0,56,0.00,,,0.05,896.000000,,2013-07-12 18:58:00,
2013-07-12 15:05:00,84.0,67.0,-100.00,North,2,7.0,14.0,56,0.00,,,0.05,896.000000,,2013-07-12 19:05:00,
2013-07-12 15:48:00,86.0,66.0,-100.00,North,10,7.0,14.0,52,0.00,,,0.05,842.000000,,2013-07-12 19:48:00,
2013-07-12 15:58:00,86.0,66.0,-100.00,North,10,7.0,14.0,52,0.00,,,0.05,842.000000,,2013-07-12 19:58:00,
2013-07-12 16:04:00,86.0,66.0,-100.00,North,10,7.0,14.0,52,0.00,,,0.05,842.000000,,2013-07-12 20:04:00,
2013-07-12 16:35:00,86.0,65.0,-100.00,North,360,9.0,15.0,49,0.00,,,0.05,811.000000,,2013-07-12 20:35:00,
2013-07-12 16:47:00,86.0,65.0,-100.00,North,360,9.0,15.0,49,0.00,,,0.05,811.000000,,2013-07-12 20:47:00,
2013-07-12 16:55:00,86.0,65.0,-100.00,North,360,9.0,15.0,49,0.00,,,0.05,811.000000,,2013-07-12 20:55:00,
2013-07-12 17:36:00,86.0,64.0,-100.00,NNE,16,6.0,14.0,48,0.00,,,0.05,595.000000,,2013-07-12 21:36:00,
2013-07-12 17:49:00,86.0,64.0,-100.00,NNE,16,6.0,14.0,48,0.00,,,0.05,595.000000,,2013-07-12 21:49:00,
2013-07-12 17:59:00,86.0,64.0,-100.00,NNE,16,6.0,14.0,48,0.00,,,0.05,595.000000,,2013-07-12 21:59:00,
2013-07-12 18:47:00,85.0,61.0,-100.00,NNE,26,7.0,13.0,45,0.00,,,0.05,568.000000,,2013-07-12 22:47:00,
2013-07-12 18:56:00,85.0,61.0,-100.00,NNE,26,7.0,13.0,45,0.00,,,0.05,568.000000,,2013-07-12 22:56:00,
2013-07-12 19:06:00,84.0,62.0,-100.00,North,9,6.0,10.0,47,0.00,,,0.01,343.000000,,2013-07-12 23:06:00,
2013-07-12 19:45:00,84.0,62.0,-100.00,North,9,6.0,10.0,47,0.00,,,0.01,343.000000,,2013-07-12 23:45:00,
2013-07-12 19:58:00,84.0,62.0,-100.00,North,9,6.0,10.0,47,0.00,,,0.01,343.000000,,2013-07-12 23:58:00,
2013-07-12 20:34:00,81.0,63.0,-100.00,North,7,5.0,10.0,54,0.00,,,0.01,136.000000,,2013-07-13 00:34:00,
2013-07-12 20:49:00,81.0,63.0,-100.00,North,7,5.0,10.0,54,0.00,,,0.01,136.000000,,2013-07-13 00:49:00,
2013-07-12 20:56:00,81.0,63.0,-100.00,North,7,5.0,10.0,54,0.00,,,0.01,136.000000,,2013-07-13 00:56:00,
2013-07-12 21:05:00,81.0,63.0,-100.00,North,7,5.0,10.0,54,0.00,,,0.01,136.000000,,2013-07-13 01:05:00,
2013-07-12 21:06:00,76.0,64.0,-100.00,NNE,16,0.0,8.0,67,0.00,,,0.01,21.000000,,2013-07-13 01:06:00,
2013-07-12 21:41:00,76.0,64.0,-100.00,NNE,16,0.0,8.0,67,0.00,,,0.01,21.000000,,2013-07-13 01:41:00,
2013-07-12 21:50:00,76.0,64.0,-100.00,NNE,16,0.0,8.0,67,0.00,,,0.01,21.000000,,2013-07-13 01:50:00,
2013-07-12 21:57:00,76.0,64.0,-100.00,NNE,16,0.0,8.0,67,0.00,,,0.01,21.000000,,2013-07-13 01:57:00,
2013-07-12 22:06:00,69.0,67.0,-100.00,North,349,0.0,0.0,92,0.00,,,0.01,0.000000,,2013-07-13 02:06:00,
2013-07-12 22:48:00,69.0,67.0,-100.00,North,349,0.0,0.0,92,0.00,,,0.01,0.000000,,2013-07-13 02:48:00,
2013-07-12 22:56:00,69.0,67.0,-100.00,North,349,0.0,0.0,92,0.00,,,0.01,0.000000,,2013-07-13 02:56:00,
2013-07-12 23:47:00,72.0,63.0,-100.00,NE,50,2.0,7.0,74,0.00,,,0.01,0.000000,,2013-07-13 03:47:00,
2013-07-12 23:57:00,72.0,63.0,-100.00,NE,50,2.0,7.0,74,0.00,,,0.01,0.000000,,2013-07-13 03:57:00,